Satellite: FCAL
Catalog number: 29667
Epoch time:      08080.83617366
Element set:     843
Inclination:      051.6287 deg
RA of node:       063.7367 deg
Eccentricity:    0.0008400
Arg of perigee:   018.7339 deg
Mean anomaly:     341.4104 deg
Mean motion:   16.06299010 rev/day
Decay rate:     7.6319e-04 rev/day^2
Epoch rev:            7231
Checksum:              302

Satellite: FALCON
Catalog number: 30776
Epoch time:      08079.96155076
Element set:    0273
Inclination:      035.4349 deg
RA of node:       334.6021 deg
Eccentricity:    0.0001974
Arg of perigee:   311.6934 deg
Mean anomaly:     048.3612 deg
Mean motion:   15.02917906 rev/day
Decay rate:       5.60e-06 rev/day^2
Epoch rev:           05671
Checksum:              296

Satellite: MAST
Catalog number: 31126
Epoch time:      08079.74383067
Element set:    0283
Inclination:      098.0474 deg
RA of node:       147.7191 deg
Eccentricity:    0.0093807
Arg of perigee:   248.8468 deg
Mean anomaly:     110.2666 deg
Mean motion:   14.53406860 rev/day
Decay rate:        6.8e-07 rev/day^2
Epoch rev:           04902
Checksum:              315

Satellite: CAPE1
Catalog number: 31130
Epoch time:      08080.77613620
Element set:     263
Inclination:      098.0485 deg
RA of node:       147.9233 deg
Eccentricity:    0.0101688
Arg of perigee:   248.0339 deg
Mean anomaly:     111.0019 deg
Mean motion:   14.51942178 rev/day
Decay rate:       1.97e-06 rev/day^2
Epoch rev:            4889
Checksum:              294

/EX





More information about the Keps mailing list